GW5168 Weather Reports


time (UTC)temp
C
wind
direction
speed
KPH
gust
KPH
rain 1hr
cm
rain 24hr
cm
rain mn
cm
humidity
%
barometer
mb
20260510192557 19 234 1.6 14.5 0.00 0.56 0.00 60 1013.3
20260510192057 19 179 1.6 14.5 0.00 0.56 0.00 60 1013.3
20260510191559 20 235 3.2 14.5 0.00 0.56 0.00 56 1013.4
20260510191057 20 206 1.6 14.5 0.00 0.56 0.00 57 1013.3
20260510190557 20 0 1.6 14.5 0.00 0.56 0.00 63 1013.3
20260510190107 20 0 3.2 14.5 0.00 0.56 0.00 61 1013.2
20260510185557 20 180 1.6 12.9 0.00 0.86 0.00 60 1013.2
20260510185056 20 0 1.6 14.5 0.00 0.86 0.00 58 1013.2
20260510184610 21 0 3.2 14.5 0.00 0.86 0.00 60 1013.2
20260510184057 21 288 1.6 14.5 0.00 0.86 0.00 57 1013.1
20260510183557 21 0 3.2 14.5 0.00 0.86 0.00 55 1013.1
20260510183110 21 285 3.2 17.7 0.00 0.86 0.00 57 1013.1
20260510182556 21 275 4.8 17.7 0.00 0.86 0.00 57 1013.2
20260510182057 21 316 4.8 17.7 0.00 0.86 0.00 60 1013.2
20260510181615 21 309 1.6 12.9 0.00 0.86 0.00 60 1013.2
20260510181057 20 257 3.2 16.1 0.00 0.86 0.00 60 1013.2
20260510180558 20 244 4.8 16.1 0.00 0.86 0.00 61 1013.3
20260510180108 20 227 1.6 19.3 0.00 0.86 0.00 59 1013.3
20260510175557 20 225 1.6 19.3 0.00 1.07 0.00 60 1013.4
20260510175057 20 281 4.8 17.7 0.00 1.07 0.00 59 1013.4
20260510174624 21 219 3.2 19.3 0.00 1.07 0.00 59 1013.4
20260510174057 21 236 4.8 19.3 0.00 1.07 0.00 60 1013.1
20260510173557 21 250 4.8 19.3 0.00 1.07 0.00 57 1013.2
20260510173058 21 229 0.0 19.3 0.00 1.07 0.00 63 1013.0
20260510172601 21 252 1.6 20.9 0.00 1.07 0.00 62 1013.0
20260510172057 21 242 4.8 20.9 0.00 1.07 0.00 58 1013.0
20260510171621 20 0 1.6 19.3 0.00 1.07 0.00 64 1013.0
20260510171101 20 293 1.6 19.3 0.00 1.07 0.00 59 1013.1
20260510170558 21 210 6.4 19.3 0.00 1.07 0.00 58 1013.0
20260510170058 21 241 1.6 12.9 0.00 1.07 0.00 58 1013.0
20260510165600 21 0 3.2 16.1 0.00 1.09 0.00 59 1012.9
20260510165059 21 0 9.7 16.1 0.00 1.09 0.00 58 1013.0
20260510164602 21 338 1.6 16.1 0.00 1.09 0.00 62 1013.0
20260510164057 21 0 1.6 16.1 0.00 1.09 0.00 58 1013.0
20260510163557 20 238 4.8 12.9 0.00 1.09 0.00 65 1013.0
20260510163110 20 234 3.2 12.9 0.00 1.09 0.00 67 1013.0
20260510162557 20 265 3.2 16.1 0.00 1.09 0.00 63 1013.0
20260510162100 20 0 3.2 16.1 0.00 1.09 0.00 63 1012.9
20260510161600 20 315 1.6 14.5 0.00 1.09 0.00 64 1012.9
20260510161057 20 295 1.6 14.5 0.00 1.09 0.00 68 1013.1
20260510160558 19 0 3.2 19.3 0.00 1.09 0.00 66 1013.2
20260510160100 19 240 8.0 19.3 0.00 1.09 0.00 65 1013.1
20260510155557 19 245 4.8 17.7 0.00 1.09 0.00 66 1013.1
20260510155058 20 206 1.6 14.5 0.00 1.09 0.00 63 1013.1
20260510154600 20 229 4.8 16.1 0.00 1.09 0.00 63 1013.1
20260510154057 19 266 1.6 24.1 0.00 1.09 0.00 66 1013.2
20260510153559 18 248 4.8 24.1 0.00 1.09 0.00 69 1013.0
20260510153059 18 238 8.0 17.7 0.00 1.09 0.00 64 1013.2
20260510152557 19 231 3.2 11.3 0.00 1.09 0.00 64 1013.1
20260510152058 19 0 1.6 17.7 0.00 1.09 0.00 68 1013.2
20260510151557 18 167 6.4 17.7 0.00 1.09 0.00 69 1013.0
20260510151057 18 225 0.0 9.7 0.00 1.09 0.00 69 1012.9
20260510150557 18 0 1.6 11.3 0.00 1.09 0.00 71 1013.0
20260510150100 18 0 1.6 16.1 0.00 1.09 0.00 68 1013.0
20260510145557 18 201 3.2 16.1 0.00 1.12 0.00 70 1013.0
20260510145059 18 215 6.4 16.1 0.00 1.12 0.00 70 1013.0
20260510144612 18 182 0.0 9.7 0.00 1.12 0.00 74 1013.0
20260510144057 18 0 0.0 9.7 0.00 1.12 0.00 75 1013.0
20260510143557 17 0 1.6 16.1 0.00 1.12 0.00 73 1013.0
20260510143058 17 228 3.2 16.1 0.00 1.12 0.00 76 1012.9
20260510142554 17 284 0.0 8.0 0.00 1.12 0.00 79 1012.9
20260510142055 16 165 0.0 8.0 0.00 1.12 0.00 80 1012.9
20260510141559 16 0 1.6 9.7 0.00 1.12 0.00 79 1012.9
20260510141058 16 0 1.6 9.7 0.00 1.12 0.00 79 1012.9
20260510140557 16 0 0.0 8.0 0.00 1.12 0.00 79 1012.9
20260510140057 16 0 0.0 8.0 0.00 1.12 0.00 79 1012.9
20260510135555 16 0 0.0 8.0 0.00 1.12 0.00 81 1012.8
20260510135055 15 0 0.0 8.0 0.00 1.12 0.00 83 1012.8
20260510134600 15 0 1.6 8.0 0.00 1.12 0.00 82 1012.7
20260510134056 15 0 1.6 8.0 0.00 1.12 0.00 83 1012.7
20260510133558 15 0 0.0 8.0 0.00 1.12 0.00 86 1012.7
20260510133106 14 246 0.0 6.4 0.00 1.12 0.00 86 1012.7
20260510132555 13 0 0.0 6.4 0.00 1.12 0.00 87 1012.8
20260510132055 13 254 0.0 6.4 0.00 1.12 0.00 89 1012.8
20260510131606 13 259 0.0 9.7 0.00 1.12 0.00 89 1012.8
20260510131055 12 0 1.6 9.7 0.00 1.12 0.00 90 1012.9
20260510130556 12 0 1.6 11.3 0.00 1.12 0.00 91 1012.9
20260510130107 12 0 1.6 11.3 0.00 1.12 0.00 92 1012.9
20260510125556 12 0 0.0 8.0 0.00 1.12 0.00 92 1012.9
20260510125055 12 221 0.0 8.0 0.00 1.12 0.00 92 1012.9
20260510124608 12 210 0.0 8.0 0.00 1.12 0.00 93 1012.9
20260510124056 12 0 0.0 6.4 0.00 1.12 0.00 92 1012.8
20260510123554 12 0 0.0 6.4 0.00 1.12 0.00 93 1012.6
20260510123111 11 240 0.0 6.4 0.00 1.12 0.00 93 1012.4
20260510122555 11 0 0.0 6.4 0.00 1.12 0.00 92 1012.2
20260510122056 11 0 0.0 6.4 0.00 1.12 0.00 93 1012.1
20260510121602 11 241 0.0 4.8 0.00 1.12 0.00 92 1012.2
20260510121055 11 276 0.0 4.8 0.00 1.12 0.00 93 1012.2
20260510120555 11 0 0.0 1.6 0.00 1.12 0.00 93 1012.1
20260510115555 11 0 0.0 4.8 0.00 1.12 0.00 93 1012.0
20260510115056 11 276 0.0 1.6 0.00 1.12 0.00 93 1011.9
20260510114620 10 0 0.0 1.6 0.00 1.12 0.00 93 1012.0
20260510114056 10 0 0.0 0.0 0.00 1.12 0.00 93 1011.9
20260510113555 10 0 0.0 3.2 0.00 1.12 0.00 93 1011.9
20260510112557 10 0 0.0 0.0 0.00 1.12 0.00 93 1011.4
20260510112057 9 0 0.0 0.0 0.00 1.12 0.00 92 1011.4
20260510111602 9 0 0.0 0.0 0.00 1.12 0.00 92 1011.5
20260510111057 9 0 0.0 0.0 0.00 1.12 0.00 92 1011.7
20260510110557 9 0 0.0 0.0 0.00 1.12 0.00 92 1011.8
20260510105557 9 0 0.0 0.0 0.00 1.12 0.00 92 1011.7
20260510105056 8 0 0.0 0.0 0.00 1.12 0.00 92 1011.7
20260510104556 8 0 0.0 0.0 0.00 1.12 0.00 92 1011.7
20260510104057 8 0 0.0 0.0 0.00 1.12 0.00 92 1011.6
20260510103557 8 0 0.0 0.0 0.00 1.12 0.00 92 1011.5
20260510102558 8 0 0.0 0.0 0.00 1.12 0.00 92 1011.5
20260510102059 8 0 0.0 0.0 0.00 1.12 0.00 92 1011.4
20260510101605 8 0 0.0 0.0 0.00 1.12 0.00 92 1011.1
20260510101057 8 0 0.0 0.0 0.00 1.12 0.00 92 1011.0
20260510100557 8 0 0.0 0.0 0.00 1.12 0.00 92 1011.0
20260510100105 8 0 0.0 0.0 0.00 1.12 0.00 92 1011.0
20260510095557 8 0 0.0 0.0 0.00 1.12 0.00 92 1011.2
20260510095058 8 0 0.0 0.0 0.00 1.12 0.00 92 1011.2
20260510094557 8 0 0.0 0.0 0.00 1.12 0.00 92 1011.1
20260510094058 8 0 0.0 0.0 0.00 1.12 0.00 92 1011.2
20260510093557 8 0 0.0 0.0 0.00 1.12 0.00 92 1011.2
20260510093056 8 0 0.0 0.0 0.00 1.12 0.00 92 1011.2
20260510092558 9 0 0.0 0.0 0.00 1.12 0.00 92 1011.2
20260510092058 9 0 0.0 0.0 0.00 1.12 0.00 92 1011.2
20260510091558 9 0 0.0 0.0 0.00 1.12 0.00 92 1011.2
20260510091057 9 0 0.0 0.0 0.00 1.12 0.00 92 1011.3
20260510090557 9 0 0.0 3.2 0.00 1.12 0.00 92 1011.2
20260510090057 9 0 0.0 3.2 0.00 1.12 0.00 92 1011.3
20260510085557 9 0 0.0 3.2 0.00 1.12 0.00 92 1011.2
20260510085059 9 0 0.0 3.2 0.00 1.12 0.00 92 1011.3
20260510084610 9 0 0.0 4.8 0.00 1.12 0.00 92 1011.3
20260510084057 9 0 0.0 4.8 0.00 1.12 0.00 92 1011.4
20260510083559 9 0 0.0 4.8 0.00 1.12 0.00 92 1011.4
20260510083055 9 0 0.0 0.0 0.00 1.12 0.00 92 1011.6
20260510082554 9 0 0.0 3.2 0.00 1.12 0.00 92 1011.6
20260510082055 9 0 0.0 3.2 0.00 1.12 0.00 92 1011.7
20260510081602 9 0 0.0 3.2 0.00 1.12 0.00 92 1011.7
20260510081056 9 0 0.0 4.8 0.00 1.12 0.00 92 1011.7
20260510080555 9 0 0.0 4.8 0.00 1.12 0.00 92 1011.6
20260510080104 9 0 0.0 3.2 0.00 1.12 0.00 92 1011.7
20260510075555 8 0 0.0 3.2 0.00 1.12 0.00 92 1011.6
20260510075055 8 0 0.0 8.0 0.00 1.12 0.00 92 1011.5
20260510074558 8 0 0.0 8.0 0.00 1.12 0.00 92 1011.5
20260510074055 8 288 3.2 6.4 0.00 1.12 0.00 91 1011.4
20260510073555 9 0 0.0 0.0 0.00 1.12 0.00 92 1010.8
20260510073059 9 0 0.0 0.0 0.00 1.12 0.00 92 1010.7
20260510072555 9 0 0.0 0.0 0.00 1.12 0.00 92 1010.6
20260510072054 9 0 0.0 0.0 0.00 1.12 0.00 92 1010.6
20260510071555 9 0 0.0 0.0 0.00 1.12 0.00 92 1010.6
20260510071055 9 0 0.0 0.0 0.00 1.12 0.00 92 1010.6
20260510070556 9 0 0.0 0.0 0.00 1.12 0.00 92 1010.6
20260510070113 9 0 0.0 0.0 0.00 1.12 0.00 92 1010.7
20260510065559 9 0 0.0 0.0 0.00 1.12 0.00 92 1010.8
20260510065055 9 0 0.0 0.0 0.00 1.12 0.00 92 1010.8
20260510064558 9 0 0.0 0.0 0.00 1.12 0.00 92 1010.9
20260510064055 10 0 0.0 0.0 0.00 1.12 0.00 92 1010.9
20260510063555 10 0 0.0 0.0 0.00 1.12 0.00 92 1011.0
20260510063055 10 0 0.0 4.8 0.00 1.12 0.00 92 1011.0
20260510062556 10 0 0.0 4.8 0.00 1.12 0.00 92 1011.1
20260510062055 10 0 0.0 4.8 0.00 1.12 0.00 92 1011.2
20260510061559 10 0 0.0 3.2 0.00 1.12 0.00 92 1011.2
20260510061055 10 43 0.0 1.6 0.00 1.12 0.00 92 1011.2
20260510060556 10 0 0.0 0.0 0.00 1.12 0.00 92 1011.2
20260510060059 10 0 0.0 0.0 0.00 1.12 0.00 92 1011.0
20260510055555 10 0 0.0 0.0 0.00 1.12 0.00 92 1010.8
20260510055058 10 0 0.0 0.0 0.00 1.12 0.00 92 1010.8
20260510054601 10 0 0.0 0.0 0.00 1.12 0.00 92 1010.6
20260510054055 10 0 0.0 0.0 0.00 1.12 0.00 92 1010.6
20260510053555 10 0 0.0 0.0 0.00 1.12 0.00 92 1010.8
20260510053059 10 0 0.0 0.0 0.00 1.12 0.00 92 1010.7
20260510052555 10 0 0.0 0.0 0.00 1.12 0.00 92 1010.7
20260510052055 9 0 0.0 3.2 0.00 1.12 0.00 92 1010.7
20260510051607 9 0 0.0 3.2 0.00 1.12 0.00 92 1010.8
20260510051058 9 0 0.0 0.0 0.00 1.12 0.00 92 1010.7
20260510050603 9 0 0.0 0.0 0.00 1.12 0.00 92 1010.6
20260510050108 9 0 0.0 0.0 0.00 1.12 0.00 92 1010.8
20260510045559 9 0 0.0 0.0 0.00 1.12 0.00 92 1010.6
20260510045057 9 0 0.0 0.0 0.00 1.12 0.00 92 1010.8
20260510044555 9 0 0.0 0.0 0.00 1.12 0.00 92 1010.8
20260510044057 9 0 0.0 0.0 0.00 1.12 0.00 92 1010.8
20260510043558 9 0 0.0 0.0 0.00 1.12 0.00 92 1010.9
20260510043055 9 0 0.0 0.0 0.00 1.12 0.00 92 1010.8
20260510042557 9 0 0.0 0.0 0.00 1.12 0.00 92 1010.9
20260510042057 9 0 0.0 0.0 0.00 1.12 0.00 91 1010.9
20260510041605 9 0 0.0 0.0 0.00 1.12 0.00 91 1011.0
20260510041057 9 0 0.0 0.0 0.00 1.12 0.00 91 1011.0
20260510040557 9 0 0.0 0.0 0.00 1.12 0.00 91 1011.1
20260510040105 9 0 0.0 0.0 0.00 1.12 0.00 91 1011.1
20260510035557 9 0 0.0 0.0 0.00 1.12 1.12 92 1011.0
20260510035100 9 0 0.0 0.0 0.00 1.12 1.12 92 1011.0
20260510034557 9 0 0.0 0.0 0.00 1.12 1.12 92 1011.1
20260510034057 8 0 0.0 0.0 0.00 1.12 1.12 92 1010.9
20260510033557 8 0 0.0 0.0 0.00 1.12 1.12 91 1010.8
20260510033103 8 0 0.0 0.0 0.00 1.12 1.12 91 1010.6
20260510032600 8 0 0.0 0.0 0.00 1.12 1.12 91 1010.6
20260510032057 8 0 0.0 0.0 0.00 1.12 1.12 91 1010.8
20260510031603 8 0 0.0 0.0 0.00 1.12 1.12 91 1010.8
20260510031058 8 0 0.0 0.0 0.00 1.12 1.12 95 1010.7
20260510030600 8 0 0.0 0.0 0.00 1.12 1.12 91 1010.8
20260510030100 8 0 0.0 0.0 0.00 1.12 1.12 91 1010.7
20260510025557 8 0 0.0 0.0 0.00 1.12 1.12 91 1010.6
20260510025100 8 0 0.0 0.0 0.00 1.12 1.12 91 1010.5
20260510024557 8 0 0.0 0.0 0.00 1.12 1.12 91 1010.4
20260510024057 8 0 0.0 0.0 0.00 1.12 1.12 91 1010.4
20260510023557 8 0 0.0 0.0 0.00 1.12 1.12 91 1010.6
20260510023058 7 0 0.0 0.0 0.00 1.12 1.12 91 1010.4
20260510022559 7 0 0.0 0.0 0.00 1.12 1.12 90 1010.4
20260510022057 7 0 0.0 0.0 0.00 1.12 1.12 90 1010.6
20260510021645 7 0 0.0 0.0 0.00 1.12 1.12 90 1010.5
20260510021057 7 0 0.0 0.0 0.00 1.12 1.12 90 1010.4
20260510020557 7 0 0.0 0.0 0.00 1.12 1.12 90 1010.4
20260510020101 7 0 0.0 0.0 0.00 1.12 1.12 89 1010.5
20260510015557 7 0 0.0 0.0 0.00 1.12 1.12 89 1010.5
20260510015058 7 0 0.0 0.0 0.00 1.12 1.12 89 1010.6
20260510014600 7 0 0.0 0.0 0.00 1.12 1.12 89 1010.6
20260510014055 7 0 0.0 0.0 0.00 1.12 1.12 89 1010.4
20260510013556 8 0 0.0 0.0 0.00 1.12 1.12 89 1010.4
20260510013114 8 0 0.0 0.0 0.00 1.12 1.12 89 1010.4
20260510012556 8 0 0.0 0.0 0.00 1.12 1.12 89 1010.3
20260510012055 8 0 0.0 0.0 0.00 1.12 1.12 89 1010.3
20260510011555 8 0 0.0 0.0 0.00 1.12 1.12 89 1010.4
20260510011055 8 0 0.0 0.0 0.00 1.12 1.12 89 1010.4
20260510010557 8 0 0.0 0.0 0.00 1.12 1.12 89 1010.4
20260510010101 8 0 0.0 0.0 0.00 1.12 1.12 88 1010.4
20260510005555 8 0 0.0 0.0 0.00 1.12 1.12 88 1010.3
20260510005055 8 0 0.0 0.0 0.00 1.12 1.12 92 1010.2
20260510004558 9 0 0.0 0.0 0.00 1.12 1.12 88 1010.0
20260510004056 9 0 0.0 0.0 0.00 1.12 1.12 88 1009.9
20260510003555 10 0 0.0 0.0 0.00 1.12 1.12 88 1009.9
20260510003100 10 0 0.0 0.0 0.00 1.12 1.12 88 1009.9
20260510002559 10 0 0.0 3.2 0.00 1.12 1.12 88 1009.8
20260510002055 10 0 0.0 3.2 0.00 1.12 1.12 88 1009.7
20260510001606 10 0 0.0 0.0 0.00 1.12 1.12 87 1009.6
20260510001056 10 0 0.0 3.2 0.00 1.12 1.12 87 1009.7
20260510000558 11 0 0.0 4.8 0.00 1.12 1.12 87 1009.6
20260510000057 11 0 0.0 4.8 0.00 1.12 1.12 88 1009.6
20260509235555 11 43 0.0 4.8 0.00 1.12 1.12 87 1009.7
20260509235056 11 0 0.0 4.8 0.00 1.12 1.12 87 1009.7
20260509234555 11 0 0.0 3.2 0.00 1.12 1.12 87 1009.8
20260509234055 11 0 0.0 3.2 0.00 1.12 1.12 87 1009.7
20260509233556 12 0 0.0 3.2 0.00 1.12 1.12 87 1009.6
20260509233058 12 0 0.0 3.2 0.00 1.12 1.12 87 1009.5
20260509232555 12 0 0.0 3.2 0.00 1.12 1.12 86 1009.6
20260509232055 12 0 0.0 4.8 0.00 1.12 1.12 86 1009.6
20260509231604 12 0 0.0 4.8 0.00 1.12 1.12 86 1009.4
20260509231056 12 0 0.0 8.0 0.00 1.12 1.12 85 1009.5
20260509230555 13 0 1.6 8.0 0.00 1.12 1.12 85 1009.4
20260509230058 13 0 1.6 8.0 0.00 1.12 1.12 85 1009.4
20260509225556 13 104 0.0 4.8 0.00 1.12 1.12 85 1009.4
20260509225056 13 105 0.0 3.2 0.00 1.12 1.12 84 1009.4
20260509224556 13 0 0.0 3.2 0.00 1.12 1.12 85 1009.4
20260509224055 13 0 0.0 0.0 0.00 1.12 1.12 86 1009.5
20260509223555 13 0 0.0 0.0 0.00 1.12 1.12 86 1009.5
20260509223055 13 0 0.0 3.2 0.00 1.12 1.12 86 1009.5
20260509222556 13 0 0.0 3.2 0.00 1.12 1.12 86 1009.6
20260509222055 13 0 0.0 3.2 0.00 1.12 1.12 85 1009.6
20260509221557 13 0 0.0 3.2 0.00 1.12 1.12 85 1009.5
20260509221056 13 0 0.0 1.6 0.00 1.12 1.12 85 1009.4
20260509220557 13 0 0.0 3.2 0.00 1.12 1.12 86 1009.5
20260509220058 13 0 0.0 3.2 0.00 1.12 1.12 86 1009.5
20260509215555 13 0 0.0 0.0 0.00 1.12 1.12 85 1009.5
20260509215056 13 0 0.0 0.0 0.00 1.12 1.12 84 1009.7
20260509214558 13 0 0.0 4.8 0.00 1.12 1.12 84 1009.7
20260509214055 13 0 0.0 4.8 0.00 1.12 1.12 83 1009.7
20260509213555 13 0 0.0 8.0 0.03 1.12 1.12 84 1009.8
20260509213111 13 253 0.0 8.0 0.03 1.12 1.12 87 1009.8
20260509212556 13 0 1.6 6.4 0.03 1.12 1.12 84 1009.8
20260509212055 13 0 0.0 4.8 0.18 1.12 1.12 87 1009.8
20260509211605 13 0 0.0 4.8 0.20 1.12 1.12 85 1009.8
20260509211056 13 209 0.0 3.2 0.23 1.12 1.12 88 1009.8
20260509210556 12 0 0.0 3.2 0.23 1.12 1.12 89 1009.8
20260509210104 12 0 0.0 0.0 0.23 1.12 1.12 90 1009.7
20260509205558 11 0 0.0 0.0 0.23 1.12 1.12 90 1009.7
20260509205055 11 0 0.0 0.0 0.25 1.12 1.12 90 1009.6
20260509204555 11 0 0.0 0.0 0.28 1.12 1.12 89 1009.8
20260509204056 11 0 0.0 0.0 0.30 1.12 1.12 89 1009.7
20260509203556 11 0 0.0 0.0 0.30 1.09 1.09 89 1009.8
20260509203100 11 0 0.0 0.0 0.33 1.09 1.09 89 1009.9
20260509202555 11 0 0.0 0.0 0.38 1.09 1.09 89 1009.9
20260509202058 11 0 0.0 0.0 0.25 0.94 0.94 89 1010.0
20260509201605 11 0 0.0 0.0 0.28 0.91 0.91 89 1009.8
20260509201055 11 0 0.0 0.0 0.28 0.89 0.89 89 1009.8
20260509200559 11 0 0.0 0.0 0.30 0.89 0.89 89 1009.9
20260509200100 11 0 0.0 1.6 0.33 0.89 0.89 89 1010.0
20260509195559 11 0 0.0 1.6 0.36 0.89 0.89 89 1010.0
20260509195055 11 0 0.0 6.4 0.36 0.86 0.86 89 1010.2
20260509194602 11 0 0.0 6.4 0.33 0.84 0.84 89 1010.4
20260509194058 11 0 0.0 4.8 0.33 0.81 0.81 88 1010.3
20260509193556 11 0 0.0 8.0 0.33 0.79 0.79 88 1010.8
20260509193059 11 0 1.6 8.0 0.33 0.76 0.76 88 1010.9